Location: Granada Hills
(34.2650°N, 118.5220°W)
Time: 20:20:22
(UTC-07:00)

deb Kosmos-1763 - Visible Passes

Search period start: 30 July 2014 00:00
Search period end: 09 August 2014 00:00
Orbit: 570 x 580 km, 74.0° (Epoch: 30 July)

Date Brightness Start Highest point End Pass type
(mag) Time Alt. Az. Time Alt. Az. Time Alt. Az.
30 Jul 7.6 03:30:11 10° NE 03:31:38 12° ENE 03:33:05 10° E visible
30 Jul 4.6 05:05:48 10° NNW 05:09:49 47° WSW 05:13:48 10° S visible
31 Jul 7.2 03:32:29 10° NNE 03:35:16 17° ENE 03:38:02 10° ESE visible
31 Jul 5.2 05:09:32 10° NW 05:13:12 30° W 05:16:51 10° SSW visible
01 Aug 6.6 03:35:22 10° N 03:38:50 25° ENE 03:42:17 10° ESE visible
01 Aug 5.7 05:13:30 10° NW 05:16:33 20° W 05:19:36 10° SSW visible
02 Aug 5.8 03:38:28 10° N 03:42:21 37° ENE 03:44:53 19° SE visible
02 Aug 6.2 05:17:54 10° WNW 05:19:52 13° W 05:20:58 12° WSW visible
03 Aug 4.9 03:41:42 10° N 03:45:50 58° ENE 03:46:23 53° ESE visible
04 Aug 4.9 03:45:04 10° NNW 03:48:19 53° NNW 03:48:19 53° NNW visible
05 Aug 5.9 03:48:33 10° NNW 03:50:31 26° NW 03:50:31 26° NW visible
06 Aug 7.4 02:15:33 10° NNE 02:16:44 13° NE 02:16:44 13° NE visible
06 Aug 6.7 03:52:10 10° NW 03:52:54 14° NW 03:52:54 14° NW visible
07 Aug 7.3 02:18:14 10° NNE 02:19:15 15° NNE 02:19:15 15° NNE visible
08 Aug 7.4 02:21:11 10° N 02:21:53 14° N 02:21:53 14° N visible
